Previsão horária em Juraszowa

Hoje, 18 Junho, Sexta-feira

Tempo Temperatura Precipitação Vento Pressão Humidade
00:00 +16°C° 0 mm 1 m/s 729 mmHg 88%
01:00 +15°C° 0 mm 1 m/s 729 mmHg 88%
02:00 +15°C° 0 mm 1 m/s 729 mmHg 87%
03:00 +15°C° 0 mm 1 m/s 729 mmHg 86%
04:00 +15°C° 0 mm 1 m/s 729 mmHg 86%
05:00 +18°C° 0 mm 1 m/s 729 mmHg 78%
06:00 +21°C° 0 mm 1 m/s 729 mmHg 71%
07:00 +21°C° 0 mm 0 m/s 730 mmHg 63%
08:00 +24°C° 0 mm 1 m/s 730 mmHg 57%
09:00 +26°C° 0 mm 1 m/s 730 mmHg 52%
10:00 +27°C° 0 mm 2 m/s 730 mmHg 46%
11:00 +28°C° 0 mm 2 m/s 729 mmHg 46%
12:00 +29°C° 0 mm 3 m/s 729 mmHg 45%
13:00 +29°C° 0 mm 3 m/s 729 mmHg 45%
14:00 +29°C° 0 mm 3 m/s 729 mmHg 49%
15:00 +28°C° 0 mm 4 m/s 729 mmHg 52%
16:00 +28°C° 0 mm 4 m/s 728 mmHg 56%
17:00 +26°C° 0 mm 3 m/s 728 mmHg 65%
18:00 +24°C° 0 mm 2 m/s 728 mmHg 74%
19:00 +23°C° 0 mm 2 m/s 728 mmHg 83%
20:00 +20°C° 0 mm 2 m/s 728 mmHg 87%
21:00 +20°C° 0 mm 1 m/s 728 mmHg 90%
22:00 +19°C° 0 mm 1 m/s 728 mmHg 94%
23:00 +19°C° 0 mm 1 m/s 728 mmHg 93%

Amanhã, 19 Junho, Sábado

Tempo Temperatura Precipitação Vento Pressão Humidade
00:00 +18°C° 0 mm 1 m/s 728 mmHg 93%
01:00 +16°C° 0 mm 1 m/s 728 mmHg 92%
02:00 +16°C° 0 mm 1 m/s 728 mmHg 92%
03:00 +16°C° 0 mm 1 m/s 728 mmHg 92%
04:00 +16°C° 0 mm 1 m/s 727 mmHg 92%
05:00 +19°C° 0 mm 1 m/s 728 mmHg 85%
06:00 +21°C° 0 mm 1 m/s 728 mmHg 78%
07:00 +23°C° 0 mm 1 m/s 728 mmHg 71%
08:00 +24°C° 0 mm 2 m/s 728 mmHg 65%
09:00 +26°C° 0 mm 3 m/s 728 mmHg 58%
10:00 +27°C° 0 mm 3 m/s 728 mmHg 52%
11:00 +28°C° 0 mm 3 m/s 727 mmHg 50%
12:00 +29°C° 0 mm 4 m/s 727 mmHg 49%
13:00 +29°C° 0 mm 4 m/s 727 mmHg 47%
14:00 +29°C° 0 mm 4 m/s 727 mmHg 50%
15:00 +28°C° 0 mm 4 m/s 727 mmHg 54%
16:00 +28°C° 0 mm 4 m/s 727 mmHg 57%
17:00 +26°C° 0 mm 4 m/s 727 mmHg 66%
18:00 +24°C° 0 mm 3 m/s 727 mmHg 75%
19:00 +23°C° 0 mm 2 m/s 727 mmHg 83%
20:00 +20°C° 0 mm 2 m/s 726 mmHg 87%
21:00 +20°C° 0 mm 1 m/s 726 mmHg 91%
22:00 +19°C° 0 mm 1 m/s 726 mmHg 95%
23:00 +18°C° 0 mm 1 m/s 726 mmHg 95%

Depois de amanhã, 20 Junho, Domingo

Tempo Temperatura Precipitação Vento Pressão Humidade
00:00 +16°C° 0 mm 0 m/s 726 mmHg 95%
01:00 +16°C° 0 mm 0 m/s 726 mmHg 95%
02:00 +15°C° 0 mm 0 m/s 726 mmHg 95%
03:00 +16°C° 0 mm 1 m/s 725 mmHg 95%
04:00 +16°C° 0 mm 1 m/s 725 mmHg 95%
05:00 +19°C° 0 mm 1 m/s 725 mmHg 89%
06:00 +20°C° 0 mm 1 m/s 725 mmHg 82%
07:00 +22°C° 0 mm 1 m/s 725 mmHg 76%
08:00 +24°C° 0 mm 1 m/s 725 mmHg 67%
09:00 +26°C° 0 mm 1 m/s 725 mmHg 59%
10:00 +28°C° 0 mm 2 m/s 725 mmHg 51%
11:00 +29°C° 0 mm 2 m/s 725 mmHg 49%
12:00 +29°C° 0 mm 2 m/s 725 mmHg 46%
13:00 +30°C° 0 mm 2 m/s 724 mmHg 44%
14:00 +30°C° 0 mm 2 m/s 724 mmHg 46%
15:00 +29°C° 0 mm 3 m/s 724 mmHg 49%
16:00 +29°C° 0 mm 3 m/s 724 mmHg 51%
17:00 +27°C° 0 mm 3 m/s 723 mmHg 60%
18:00 +25°C° 0 mm 2 m/s 723 mmHg 68%
19:00 +24°C° 0 mm 2 m/s 723 mmHg 77%
20:00 +21°C° 0 mm 2 m/s 723 mmHg 80%
21:00 +20°C° 0 mm 2 m/s 723 mmHg 84%
22:00 +20°C° 0 mm 1 m/s 723 mmHg 88%
23:00 +19°C° 0 mm 1 m/s 723 mmHg 89%

21 Junho, Segunda-feira

Tempo Temperatura Precipitação Vento Pressão Humidade
00:00 +19°C° 0 mm 1 m/s 722 mmHg 89%
01:00 +18°C° 0 mm 1 m/s 722 mmHg 90%
02:00 +18°C° 0 mm 1 m/s 722 mmHg 90%
03:00 +18°C° 0 mm 1 m/s 722 mmHg 90%
04:00 +18°C° 0 mm 1 m/s 722 mmHg 89%
05:00 +20°C° 0 mm 1 m/s 722 mmHg 82%
06:00 +22°C° 0 mm 1 m/s 722 mmHg 74%
07:00 +24°C° 0 mm 1 m/s 722 mmHg 67%
08:00 +26°C° 0 mm 1 m/s 722 mmHg 61%
09:00 +27°C° 0 mm 1 m/s 722 mmHg 55%
10:00 +29°C° 0 mm 1 m/s 722 mmHg 49%
11:00 +30°C° 0 mm 2 m/s 721 mmHg 47%
12:00 +30°C° 0 mm 2 m/s 721 mmHg 46%
13:00 +30°C° 0 mm 2 m/s 721 mmHg 44%
14:00 +30°C° 0.1 mm 2 m/s 721 mmHg 49%
15:00 +29°C° 0.1 mm 2 m/s 721 mmHg 54%
16:00 +28°C° 0.1 mm 1 m/s 721 mmHg 59%
17:00 +27°C° 0.3 mm 1 m/s 721 mmHg 66%
18:00 +25°C° 0.3 mm 1 m/s 721 mmHg 73%
19:00 +23°C° 0.3 mm 1 m/s 721 mmHg 81%
20:00 +22°C° 0.3 mm 1 m/s 721 mmHg 84%
21:00 +21°C° 0.3 mm 1 m/s 721 mmHg 87%
22:00 +20°C° 0.3 mm 1 m/s 721 mmHg 90%
23:00 +20°C° 0.1 mm 1 m/s 721 mmHg 91%

22 Junho, Terça-feira

Tempo Temperatura Precipitação Vento Pressão Humidade
00:00 +19°C° 0.1 mm 1 m/s 721 mmHg 92%
01:00 +19°C° 0.1 mm 1 m/s 721 mmHg 92%
02:00 +19°C° 0.1 mm 1 m/s 721 mmHg 93%
03:00 +19°C° 0.1 mm 1 m/s 722 mmHg 93%
04:00 +19°C° 0.1 mm 1 m/s 722 mmHg 93%
05:00 +20°C° 0 mm 1 m/s 722 mmHg 88%
06:00 +20°C° 0 mm 0 m/s 722 mmHg 83%
07:00 +22°C° 0 mm 0 m/s 723 mmHg 79%
08:00 +25°C° 0.1 mm 1 m/s 723 mmHg 72%
09:00 +27°C° 0.1 mm 1 m/s 723 mmHg 65%
10:00 +28°C° 0.1 mm 1 m/s 723 mmHg 58%
11:00 +29°C° 0.5 mm 1 m/s 724 mmHg 59%
12:00 +29°C° 0.5 mm 1 m/s 724 mmHg 59%
13:00 +29°C° 0.5 mm 1 m/s 724 mmHg 60%
14:00 +29°C° 0.7 mm 1 m/s 724 mmHg 61%
15:00 +29°C° 0.7 mm 1 m/s 724 mmHg 61%
16:00 +29°C° 0.7 mm 1 m/s 724 mmHg 62%
17:00 +25°C° 0.4 mm 0 m/s 724 mmHg 69%
18:00 +24°C° 0.4 mm 0 m/s 724 mmHg 75%
19:00 +22°C° 0.4 mm 0 m/s 724 mmHg 82%
20:00 +21°C° 0 mm 0 m/s 724 mmHg 84%
21:00 +22°C° 0 mm 1 m/s 724 mmHg 87%
22:00 +21°C° 0 mm 1 m/s 724 mmHg 89%
23:00 +21°C° 0 mm 1 m/s 724 mmHg 90%

23 Junho, Quarta-feira

Tempo Temperatura Precipitação Vento Pressão Humidade
00:00 +20°C° 0 mm 1 m/s 724 mmHg 91%
01:00 +20°C° 0 mm 1 m/s 724 mmHg 91%
02:00 +20°C° 0 mm 1 m/s 724 mmHg 91%
03:00 +20°C° 0 mm 1 m/s 724 mmHg 92%
04:00 +20°C° 0 mm 1 m/s 724 mmHg 92%
05:00 +21°C° 0 mm 1 m/s 725 mmHg 86%
06:00 +23°C° 0 mm 1 m/s 725 mmHg 80%
07:00 +25°C° 0 mm 1 m/s 725 mmHg 74%
08:00 +27°C° 0 mm 1 m/s 725 mmHg 67%
09:00 +29°C° 0 mm 1 m/s 725 mmHg 60%
10:00 +31°C° 0 mm 1 m/s 726 mmHg 53%
11:00 +31°C° 0.1 mm 1 m/s 725 mmHg 53%
12:00 +31°C° 0.1 mm 1 m/s 725 mmHg 53%
13:00 +31°C° 0.1 mm 1 m/s 725 mmHg 54%
14:00 +31°C° 0.1 mm 1 m/s 725 mmHg 56%
15:00 +31°C° 0.1 mm 1 m/s 726 mmHg 58%
16:00 +30°C° 0.1 mm 1 m/s 726 mmHg 60%
17:00 +29°C° 0.3 mm 1 m/s 725 mmHg 68%
18:00 +27°C° 0.3 mm 1 m/s 725 mmHg 76%
19:00 +25°C° 0.3 mm 1 m/s 725 mmHg 84%
20:00 +24°C° 0 mm 1 m/s 725 mmHg 87%
21:00 +23°C° 0 mm 1 m/s 725 mmHg 89%
22:00 +21°C° 0 mm 2 m/s 725 mmHg 92%
23:00 +21°C° 0 mm 2 m/s 725 mmHg 92%
Mostrar mais

Necessitamos do seu Consentimento

A Meteoprog e os seus Fornecedores de Serviços podem armazenar e aceder a dados pessoais como cookies, identificadores do dispositivo ou outras tecnologias semelhantes existentes no seu dispositivo e processar estes dados para personalizar conteúdos e anúncios, assim como funcionalidades nas redes sociais e análise de tráfego.

  • Armazenar e/ou aceder a informações no seu dispositivo

    Os cookies, identificadores do dispositivo ou outras informações podem ser armazenados ou acedidos no seu dispositivo, para os fins acima indicados.

  • Anúncios e conteúdos personalizados, medição de anúncios e conteúdos, dados sobre o público-alvo e desenvolvimento de produtos

    Os anúncios e os conteúdos podem ser personalizados com base num perfil. Podem ser adicionados dados adicionais para uma maior personalização dos anúncios e dos conteúdos. A eficácia dos anúncios e dos conteúdos pode ser medida. Podem ser obtidas informações sobre o público que visualizou os anúncios e os conteúdos. Estes dados podem ser usados para desenvolver ou melhorar sistemas, softwares ou a experiência do utilizador.

Ao clicar em "Eu concordo”, permitirá o uso de cookies, identificadores do dispositivo e web beacons mencionados ou outras tecnologias semelhantes. As configurações do navegador do seu dispositivo podem ser alteradas.

Para certos fins, podem ser invocados interesses legítimos ao invés de consentimento. Pode ler mais informação sobre este assunto na nossa Política de Privacidade e Cookies.